Location: ?????
(55.8833°N, 37.6500°E)
Time: 02:09:38
(UTC+00:00)

USA 186 - Pass Details

Date: 27 February 2020
Orbit: 266 x 454 km, 96.9° (Epoch: 03 April)

Event Time Altitude Azimuth Distance (km) Brightness Sun altitude
Exits shadow 17:32:28 21° 231° (SW) 867 3.7 -22.2°
Maximum altitude 17:33:27 25° 266° (W) 760 3.7 -22.3°
Drops below altitude 10° 17:35:58 10° 325° (NW) 1,384 5.1 -22.6°
Sets 17:38:13 0° 339° (NNW) 2,284 6.1 -22.9°
